E1521 Weather Reports


Display with metric or nautical units.
time (UTC)temp
F
wind
direction
speed
MPH
gust
MPH
rain 1hr
in
rain 24hr
in
rain mn
in
humidity
%
barometer
mb
20260507115536 59 128 1.0 3.0 0.00 0.00 0.00 42 1013.8
20260507114516 60 128 0.0 2.0 0.00 0.00 0.00 43 1013.7
20260507113517 59 133 1.0 2.0 0.00 0.00 0.00 43 1013.7
20260507112519 59 0.0 0.0 0.00 0.00 0.00 44 1013.7
20260507111516 59 145 0.0 4.0 0.00 0.00 0.00 44 1013.7
20260507110516 59 133 0.0 2.0 0.00 0.00 0.00 49 1013.7
20260507105516 60 9 0.0 1.0 0.00 0.00 0.00 49 1013.8
20260507104516 60 0.0 0.0 0.00 0.00 0.00 50 1013.8
20260507103537 60 0.0 0.0 0.00 0.00 0.00 52 1013.8
20260507102517 59 0.0 0.0 0.00 0.00 0.00 51 1013.9
20260507101517 60 0.0 0.0 0.00 0.00 0.00 51 1014.0
20260507100537 60 0.0 0.0 0.00 0.00 0.00 51 1014.1
20260507095516 60 0.0 0.0 0.00 0.00 0.00 51 1014.1
20260507094516 60 0.0 0.0 0.00 0.00 0.00 51 1014.1
20260507093516 61 0.0 0.0 0.00 0.00 0.00 51 1014.2
20260507092517 61 0.0 0.0 0.00 0.00 0.00 49 1014.3
20260507091516 61 0.0 0.0 0.00 0.00 0.00 50 1014.3
20260507090516 61 0.0 0.0 0.00 0.00 0.00 49 1014.4
20260507085517 61 0.0 0.0 0.00 0.00 0.00 48 1014.4
20260507084517 62 0.0 0.0 0.00 0.00 0.00 48 1014.5
20260507083516 62 0.0 0.0 0.00 0.00 0.00 46 1014.6
20260507082516 62 0.0 0.0 0.00 0.00 0.00 45 1014.6
20260507081517 63 0.0 0.0 0.00 0.00 0.00 44 1014.7
20260507080516 63 0.0 0.0 0.00 0.00 0.00 44 1014.7
20260507075537 64 0.0 0.0 0.00 0.00 0.00 42 1014.7
20260507074516 64 0.0 0.0 0.00 0.00 0.00 45 1014.7
20260507073536 65 0.0 0.0 0.00 0.00 0.00 47 1014.7
20260507072516 65 0.0 0.0 0.00 0.00 0.00 41 1014.7
20260507071517 67 0.0 0.0 0.00 0.00 0.00 40 1014.7
20260507070517 67 9 0.0 1.0 0.00 0.00 0.00 37 1014.7
20260507065516 67 283 0.0 1.0 0.00 0.00 0.00 40 1014.8
20260507064516 67 0.0 0.0 0.00 0.00 0.00 38 1014.8
20260507063516 67 0.0 0.0 0.00 0.00 0.00 40 1014.7
20260507062537 68 0.0 0.0 0.00 0.00 0.00 38 1014.7
20260507061558 68 0.0 0.0 0.00 0.00 0.00 37 1014.6
20260507060519 68 0.0 0.0 0.00 0.00 0.00 36 1014.6
20260507055516 68 0.0 0.0 0.00 0.00 0.00 34 1014.6
20260507054515 68 0.0 0.0 0.00 0.00 0.00 35 1014.5
20260507053517 69 0.0 0.0 0.00 0.00 0.00 34 1014.6
20260507052519 69 0.0 0.0 0.00 0.00 0.00 34 1014.5
20260507051517 69 0.0 0.0 0.00 0.00 0.00 34 1014.5
20260507050516 69 0.0 0.0 0.00 0.00 0.00 35 1014.5
20260507045517 69 0.0 0.0 0.00 0.00 0.00 36 1014.5
20260507044517 69 0.0 0.0 0.00 0.00 0.00 34 1014.4
20260507043517 70 0.0 0.0 0.00 0.00 0.00 32 1014.3
20260507042518 71 0.0 0.0 0.00 0.00 0.00 32 1014.2
20260507041515 72 0.0 0.0 0.00 0.00 0.00 30 1014.2
20260507040516 73 0.0 0.0 0.00 0.00 0.00 28 1014.1
20260507035516 74 0.0 0.0 0.00 0.00 0.00 27 1013.9
20260507034535 75 0.0 0.0 0.00 0.00 0.00 27 1013.9
20260507033535 76 0.0 1.0 0.00 0.00 0.00 25 1013.8
20260507032516 76 283 0.0 1.0 0.00 0.00 0.00 25 1013.7
20260507031515 77 0.0 1.0 0.00 0.00 0.00 24 1013.5
20260507030515 77 0.0 0.0 0.00 0.00 0.00 24 1013.4
20260507025515 78 0.0 1.0 0.00 0.00 0.00 23 1013.2
20260507024518 78 281 0.0 1.0 0.00 0.00 0.00 23 1013.1
20260507023521 78 0.0 0.0 0.00 0.00 0.00 23 1013.0
20260507022516 79 0.0 1.0 0.00 0.00 0.00 22 1013.0
20260507021517 79 269 1.0 3.0 0.00 0.00 0.00 22 1012.8
20260507020516 80 279 0.0 1.0 0.00 0.00 0.00 21 1012.8
20260507015536 81 276 0.0 4.0 0.00 0.00 0.00 21 1012.7
20260507014516 82 299 1.0 3.0 0.00 0.00 0.00 20 1012.8
20260507013538 82 283 1.0 4.0 0.00 0.00 0.00 20 1012.8
20260507012515 82 285 1.0 4.0 0.00 0.00 0.00 20 1012.7
20260507011517 83 292 3.0 5.0 0.00 0.00 0.00 20 1012.7
20260507010555 83 275 0.0 2.0 0.00 0.00 0.00 20 1012.8
20260507005516 83 276 1.0 6.0 0.00 0.00 0.00 20 1012.7
20260507004515 83 308 0.0 6.0 0.00 0.00 0.00 20 1012.7
20260507003515 84 303 2.0 6.0 0.00 0.00 0.00 20 1012.7
20260507002515 83 324 2.0 4.0 0.00 0.00 0.00 20 1012.6
20260507001535 83 340 1.0 6.0 0.00 0.00 0.00 20 1012.6
20260507000536 83 321 3.0 8.0 0.00 0.00 0.00 20 1012.7
20260506235515 83 291 5.0 9.0 0.00 0.00 0.00 20 1012.6
20260506234535 82 308 1.0 6.0 0.00 0.00 0.00 20 1012.6
20260506233516 82 280 1.0 7.0 0.00 0.00 0.00 20 1012.7
20260506232535 83 270 2.0 6.0 0.00 0.00 0.00 21 1012.8
20260506231535 82 310 3.0 9.0 0.00 0.00 0.00 21 1012.9
20260506230536 83 318 2.0 5.0 0.00 0.00 0.00 20 1013.0
20260506225515 82 58 1.0 7.0 0.00 0.00 0.00 20 1013.1
20260506224535 82 4 1.0 9.0 0.00 0.00 0.00 19 1013.2
20260506223516 82 314 3.0 8.0 0.00 0.00 0.00 20 1013.4
20260506222535 82 286 5.0 10.0 0.00 0.00 0.00 20 1013.5
20260506221516 81 303 1.0 6.0 0.00 0.00 0.00 22 1013.6
20260506220515 81 306 1.0 7.0 0.00 0.00 0.00 22 1013.7
20260506215516 81 302 5.0 11.0 0.00 0.00 0.00 22 1013.8
20260506214515 81 255 3.0 7.0 0.00 0.00 0.00 22 1014.0
20260506213516 81 285 3.0 11.0 0.00 0.00 0.00 22 1014.2
20260506212516 82 287 3.0 7.0 0.00 0.00 0.00 22 1014.4
20260506211515 80 256 3.0 10.0 0.00 0.00 0.00 23 1014.5
20260506210515 80 105 1.0 8.0 0.00 0.00 0.00 23 1014.6
20260506205517 80 300 3.0 10.0 0.00 0.00 0.00 24 1014.7
20260506204515 79 268 1.0 7.0 0.00 0.00 0.00 24 1014.9
20260506203515 79 238 2.0 6.0 0.00 0.00 0.00 24 1015.0
20260506202536 79 329 2.0 9.0 0.00 0.00 0.00 25 1015.1
20260506201515 79 327 4.0 12.0 0.00 0.00 0.00 24 1015.1
20260506200615 78 36 0.0 6.0 0.00 0.00 0.00 25 1015.2
20260506195515 78 302 3.0 10.0 0.00 0.00 0.00 25 1015.3
20260506194515 79 314 4.0 9.0 0.00 0.00 0.00 25 1015.5
20260506193515 78 63 2.0 7.0 0.00 0.00 0.00 25 1015.5
20260506192536 78 310 3.0 7.0 0.00 0.00 0.00 25 1015.7
20260506191515 77 283 1.0 8.0 0.00 0.00 0.00 25 1015.9
20260506190514 77 78 1.0 7.0 0.00 0.00 0.00 26 1015.9
20260506185515 77 337 3.0 8.0 0.00 0.00 0.00 26 1016.1
20260506184517 76 359 2.0 7.0 0.00 0.00 0.00 26 1016.2
20260506183515 76 286 1.0 8.0 0.00 0.00 0.00 26 1016.3
20260506182517 76 280 3.0 9.0 0.00 0.00 0.00 26 1016.5
20260506181515 76 288 1.0 5.0 0.00 0.00 0.00 28 1016.6
20260506180538 75 333 2.0 5.0 0.00 0.00 0.00 31 1016.6
20260506175537 75 285 2.0 7.0 0.00 0.00 0.00 30 1016.7
20260506174516 74 271 1.0 6.0 0.00 0.00 0.00 30 1016.7
20260506173517 75 279 1.0 5.0 0.00 0.00 0.00 31 1016.7
20260506172516 74 286 1.0 5.0 0.00 0.00 0.00 31 1016.6
20260506171520 73 268 1.0 5.0 0.00 0.00 0.00 33 1016.6
20260506170518 74 312 0.0 3.0 0.00 0.00 0.00 32 1016.7
20260506165518 73 283 1.0 4.0 0.00 0.00 0.00 33 1016.7
20260506164516 72 212 0.0 4.0 0.00 0.00 0.00 34 1016.6
20260506163517 71 313 0.0 3.0 0.00 0.00 0.00 35 1016.6
20260506162517 70 348 1.0 4.0 0.00 0.00 0.00 36 1016.6
20260506161516 70 297 2.0 6.0 0.00 0.00 0.00 35 1016.6
20260506160517 70 344 0.0 1.0 0.00 0.00 0.00 36 1016.6
20260506155517 70 51 0.0 3.0 0.00 0.00 0.00 38 1016.7
20260506154517 69 81 1.0 4.0 0.00 0.00 0.00 39 1016.7
20260506153516 68 84 2.0 4.0 0.00 0.00 0.00 39 1016.7
20260506152537 68 117 1.0 3.0 0.00 0.00 0.00 41 1016.6
20260506151516 67 117 1.0 3.0 0.00 0.00 0.00 42 1016.5
20260506150518 65 143 1.0 3.0 0.00 0.00 0.00 44 1016.5
20260506145517 64 130 1.0 4.0 0.00 0.00 0.00 45 1016.4
20260506144516 64 132 2.0 4.0 0.00 0.00 0.00 46 1016.3
20260506143516 63 131 1.0 4.0 0.00 0.00 0.00 48 1016.2
20260506142517 61 134 1.0 4.0 0.00 0.00 0.00 48 1016.2
20260506141518 60 127 1.0 3.0 0.00 0.00 0.00 49 1016.0
20260506140517 59 137 0.0 3.0 0.00 0.00 0.00 50 1015.9
20260506135517 58 133 2.0 4.0 0.00 0.00 0.00 50 1015.9
20260506134517 58 132 1.0 4.0 0.00 0.00 0.00 50 1015.8
20260506133517 57 129 0.0 2.0 0.00 0.00 0.00 51 1015.7
20260506132537 56 128 0.0 3.0 0.00 0.00 0.00 52 1015.6
20260506131517 55 92 0.0 2.0 0.00 0.00 0.00 53 1015.5
20260506130516 54 134 0.0 2.0 0.00 0.00 0.00 55 1015.4
20260506125516 54 133 0.0 3.0 0.00 0.00 0.00 55 1015.2
20260506124516 54 130 1.0 3.0 0.00 0.00 0.00 53 1015.1
20260506123517 54 135 1.0 3.0 0.00 0.00 0.00 53 1015.0
20260506122516 54 130 0.0 2.0 0.00 0.00 0.00 53 1014.9
20260506121516 54 129 0.0 2.0 0.00 0.00 0.00 52 1014.9
20260506120517 55 128 1.0 3.0 0.00 0.00 0.00 51 1014.8